Wind_Speed
20 24 26 25 26 28 28 29 27 28 28 24 30 21 18 19 34 20 42 45 44 43 39 37 44 44 44 43 39 35 33 33 34 29 23 18 17 17 18 18 14 12 12
14 21 24 25 27 28 29 29 29 27 26 24 23 16 28 17 21 20 46 47 47 44 41 39 45 46 41 43 42 35 30 30 36 25 17 4 10 18 18 16 16 15 16
13 14 22 23 26 27 29 30 29 28 21 22 24 19 18 18 31 33 28 48 49 47 43 42 45 45 45 44 44 40 34 28 29 35 13 4 5 16 17 19 18 19 19
10 12 19 23 25 28 28 28 28 27 23 23 21 19 15 19 3 29 25 44 50 47 43 45 44 48 44 40 43 42 38 33 28 34 24 7 16 4 6 20 22 21 20
9 12 17 21 24 28 29 28 27 25 26 23 18 16 15 19 16 19 34 41 46 47 46 48 47 45 44 43 42 40 40 39 33 34 22 18 26 15 5 8 15 23 21
10 13 18 20 23 28 28 27 27 26 28 25 22 17 17 19 19 15 31 16 41 46 45 47 48 46 44 42 43 43 42 38 35 34 26 22 24 12 12 4 16 17 25
9 10 12 19 23 27 28 26 27 27 29 29 25 21 17 16 13 10 19 15 26 40 45 47 44 43 45 43 42 44 42 43 39 39 34 23 28 23 18 22 17 11 16
7 9 13 17 20 25 27 26 26 27 29 29 30 24 20 18 18 12 15 18 9 38 44 47 47 43 49 47 43 42 41 40 38 39 36 28 30 24 22 21 26 7 5
8 9 14 16 19 22 26 27 26 26 29 30 31 28 24 19 19 14 15 18 25 5 41 45 46 46 44 46 43 40 39 39 40 40 38 35 30 23 19 26 31 24 6
9 8 12 17 20 22 24 26 26 25 27 30 31 30 27 20 17 13 18 13 13 18 38 44 45 43 43 45 43 38 38 38 38 39 38 36 32 24 25 27 33 28 9
8 7 11 18 22 23 23 24 26 27 28 31 31 33 31 26 19 13 14 13 6 13 9 44 44 43 43 43 44 39 40 40 39 35 39 38 34 29 28 26 32 31 17
8 6 10 15 21 23 24 25 25 26 28 29 29 30 31 28 23 20 18 12 8 9 19 21 47 43 44 45 43 40 39 41 39 39 38 39 38 33 30 28 31 34 27
7 5 9 13 20 23 25 26 26 25 30 28 29 28 31 31 28 24 21 16 11 3 13 18 36 45 44 44 43 41 40 40 42 42 41 38 39 37 34 31 28 35 31
5 4 4 11 20 22 24 28 27 26 30 29 30 29 30 31 28 24 19 15 10 6 4 10 24 42 44 46 44 41 40 40 40 41 43 40 41 39 39 35 35 31 28
6 5 5 8 18 22 23 28 28 28 29 27 29 32 31 30 30 27 22 16 10 6 2 5 15 41 40 42 44 42 41 40 37 37 40 40 44 45 43 38 37 35 32
4 6 5 10 13 19 21 26 27 29 27 27 28 33 33 32 32 31 28 21 15 10 5 10 9 29 35 33 48 44 41 40 39 37 37 37 43 45 44 43 40 41 37
2 4 4 8 13 16 18 23 23 26 26 26 27 33 34 31 33 32 31 29 26 15 17 16 7 12 13 16 38 45 38 37 37 37 37 36 42 45 45 44 43 41 42
2 4 7 7 10 13 16 19 20 24 25 24 26 32 34 31 33 31 31 29 25 21 21 22 18 14 17 11 23 41 36 36 38 40 40 41 39 46 46 45 45 44 43
7 7 5 6 9 10 14 17 18 22 23 23 24 28 32 32 31 32 32 28 25 25 27 26 27 21 21 10 15 30 29 31 34 35 37 40 38 45 47 44 39 39 40
5 3 4 6 8 8 12 14 16 19 21 23 20 21 26 28 29 30 29 28 25 24 24 27 26 24 26 22 11 9 14 14 23 30 33 40 40 42 47 46 39 35 35
6 5 5 6 7 7 9 12 13 16 18 18 18 18 19 23 26 27 26 27 25 23 25 22 24 24 25 27 24 14 9 8 2 10 21 28 40 39 45 48 38 37 39
6 4 6 6 6 6 6 8 10 13 16 16 16 17 17 16 20 24 25 26 25 22 22 22 21 25 26 25 24 20 14 10 7 5 3 7 14 29 40 44 44 41 39
8 6 7 8 7 6 6 6 8 11 14 14 15 14 15 14 14 20 21 22 23 21 20 19 19 22 25 28 23 18 15 14 8 6 3 2 4 4 20 42 43 40 40
11 8 8 9 10 6 5 5 6 9 11 12 13 12 13 12 13 11 16 20 20 19 17 19 19 20 23 25 25 24 20 14 10 4 2 4 4 5 4 8 12 27 27
11 10 11 11 12 9 8 7 7 9 9 9 9 10 9 10 11 9 8 11 14 18 18 17 19 20 21 25 21 23 20 15 12 8 8 9 9 6 4 4 4 5 10
12 12 13 13 14 12 12 10 9 9 8 7 6 8 8 9 8 8 8 10 12 13 14 15 18 16 17 20 19 17 20 18 16 20 18 17 14 13 10 8 7 6 2
Wind_Direction
329 329 330 335 334 339 341 337 333 335 332 336 338 333 316 210 232 207 183 177 173 175 175 173 175 181 176 178 179 172 168 167 166 152 152 142 157 155 162 170 167 167 161
328 333 332 337 337 336 337 339 335 336 337 333 318 305 302 264 242 255 187 178 174 176 175 173 173 174 172 177 177 172 161 165 164 154 141 137 148 152 156 166 164 165 153
325 332 335 334 333 338 337 337 334 333 331 327 333 318 323 298 251 249 214 179 173 177 176 175 171 174 177 175 177 175 169 166 168 167 155 138 189 162 170 173 178 168 170
327 332 332 334 334 336 334 338 337 334 336 341 335 332 327 294 232 215 273 181 175 177 177 175 174 175 176 175 177 178 174 169 168 173 179 165 154 157 167 184 179 183 187
327 328 331 333 332 334 336 337 338 337 345 345 339 330 316 301 296 265 228 202 174 174 176 175 175 174 175 178 178 177 176 178 175 183 174 183 167 159 139 165 177 184 192
326 328 332 337 339 337 337 339 341 340 346 353 345 335 324 329 325 277 236 250 165 176 176 174 174 175 177 178 179 181 176 176 180 184 187 175 173 167 158 137 172 176 187
322 326 332 340 340 339 337 341 343 342 346 354 350 345 334 322 313 282 275 248 197 180 175 174 173 175 177 180 180 181 180 180 181 187 196 194 184 187 169 156 165 171 179
316 320 323 336 339 338 338 340 343 344 347 353 353 350 340 334 322 309 300 264 319 180 176 173 174 180 180 180 183 183 185 186 185 191 198 197 184 186 180 168 163 146 166
317 317 321 335 341 338 340 341 342 346 351 351 355 351 348 340 329 328 307 281 265 260 182 176 177 180 181 178 180 182 185 188 192 195 203 202 199 200 191 179 175 169 159
313 318 324 341 345 343 344 348 350 349 351 354 358 350 346 346 342 342 311 282 255 258 194 181 182 181 178 177 180 181 185 187 193 196 201 204 203 200 196 193 183 187 157
305 308 322 347 352 351 350 350 354 352 356 358 357 356 350 353 355 340 317 297 292 263 279 184 181 180 176 177 180 183 184 187 191 192 200 204 203 200 199 193 192 192 185
295 300 320 348 356 355 353 352 356 357 356 358 359 356 352 354 0 354 342 328 317 283 249 241 180 179 178 178 182 183 185 186 188 190 196 200 199 200 199 194 198 197 198
316 307 344 350 354 359 359 354 356 359 357 359 1 357 356 354 1 359 352 342 318 347 260 239 200 178 181 180 184 187 188 188 190 191 193 197 198 201 202 203 199 202 202
302 306 333 348 355 358 6 360 356 3 360 2 4 358 355 356 358 5 359 345 327 308 268 235 232 184 184 181 185 188 190 191 191 193 196 195 198 198 202 205 207 202 204
338 333 336 341 352 356 6 3 2 7 5 2 6 359 353 0 2 9 10 4 345 358 336 5 289 188 187 184 185 189 191 191 191 193 196 198 202 205 205 202 208 209 207
325 340 352 349 344 351 5 2 2 5 10 6 4 3 356 0 3 6 11 15 14 25 67 79 357 195 183 189 187 189 191 192 191 191 195 199 207 207 209 210 214 212 204
268 314 316 326 338 351 4 0 5 4 11 9 5 7 359 359 4 7 14 16 16 31 49 86 102 44 82 177 193 192 191 194 193 193 193 195 205 211 211 213 216 219 217
268 291 299 329 347 355 360 2 9 10 11 7 8 8 1 357 6 9 12 15 18 28 48 69 76 85 30 168 196 195 192 194 195 194 195 197 201 209 211 210 211 216 217
235 264 296 330 347 356 358 1 11 11 11 5 7 6 3 359 4 7 9 10 18 25 36 57 56 59 50 70 187 201 189 199 200 200 199 199 201 209 211 208 207 212 218
234 274 317 331 343 353 357 360 8 12 7 3 0 9 6 5 5 10 11 13 21 31 37 46 53 39 49 47 107 143 190 184 201 203 204 207 206 212 213 209 206 207 212
242 259 283 315 332 342 349 359 359 7 1 5 6 9 12 6 13 16 20 23 22 30 40 36 42 41 28 45 48 72 106 146 119 160 190 201 209 211 219 216 210 211 214
236 257 270 292 318 332 329 348 350 350 354 3 11 8 20 15 11 21 21 29 24 22 28 27 25 26 31 30 31 52 49 106 130 102 112 154 192 212 214 217 215 217 218
221 249 256 279 297 315 314 310 340 341 349 359 7 14 19 24 20 22 19 17 23 19 24 22 22 17 18 25 20 22 49 72 101 114 129 128 140 196 207 216 217 218 218
213 234 250 262 282 299 306 299 322 329 343 354 2 11 16 24 30 25 25 27 17 17 28 24 17 12 14 13 22 13 29 56 69 71 96 98 102 104 137 196 203 214 213
214 220 236 254 268 280 285 291 302 314 329 343 1 5 14 24 26 33 23 37 31 26 24 25 21 10 10 6 19 20 21 33 51 75 81 65 57 67 45 35 121 209 221
231 236 242 252 265 273 279 284 287 297 308 322 338 355 13 20 26 23 27 35 36 31 29 25 27 20 14 11 17 27 31 38 61 74 56 54 61 49 52 41 49 57 33
Height
817 812 806 801 795 789 781 775 770 764 759 748 737 725 725 713 718 727 735 741 747 756 765 770 775 781 787 794 800 806 812 818 821 824 832 840 844 846 848 850 853 855 857
815 811 805 798 793 786 780 772 767 761 753 747 749 737 725 714 718 733 727 733 740 750 758 763 769 775 783 790 795 801 807 814 818 821 830 840 846 847 848 851 853 855 857
815 810 804 799 794 786 778 772 766 762 761 753 741 738 721 712 710 713 707 724 731 743 750 758 762 771 778 783 791 796 802 809 816 820 821 835 837 843 847 849 852 854 857
815 810 805 799 793 786 779 773 767 761 753 746 740 733 725 729 712 720 712 718 723 736 744 751 758 764 773 780 785 791 797 804 811 818 820 821 824 835 843 847 849 852 855
814 809 805 800 793 785 778 772 766 760 754 747 742 736 729 727 719 714 714 717 713 727 737 742 752 759 767 775 781 787 791 799 806 812 815 819 824 827 832 840 844 849 852
811 807 803 798 791 784 777 772 764 758 751 745 741 736 727 715 712 708 709 713 696 719 729 736 744 753 763 770 776 783 787 794 802 809 813 814 817 822 825 833 840 843 847
810 805 800 795 789 783 776 771 764 756 748 743 738 731 726 719 718 714 703 714 703 711 719 730 740 748 756 765 772 778 784 789 795 802 808 812 815 818 821 825 836 841 846
808 804 800 796 791 783 776 771 764 756 747 742 736 732 724 718 710 708 706 708 702 708 716 723 731 744 747 755 766 774 780 786 792 798 805 809 812 816 818 821 827 839 843
807 803 798 794 790 783 776 770 764 756 748 741 735 730 727 720 714 699 707 712 697 692 711 717 726 736 742 747 759 767 775 781 788 794 801 806 809 813 815 818 822 824 833
806 801 797 793 790 784 776 770 764 756 751 742 735 730 725 720 716 704 706 710 707 708 709 713 723 731 736 742 752 761 770 776 783 790 796 802 806 809 813 816 819 823 824
805 801 797 793 790 783 775 769 764 757 750 743 737 729 725 720 714 717 712 706 700 704 710 709 716 724 728 736 745 754 762 770 777 783 790 796 801 805 809 812 815 819 822
804 799 796 793 788 782 774 768 765 759 753 746 740 733 727 721 714 709 704 701 695 694 701 704 706 715 721 729 739 747 755 762 769 775 783 789 795 800 804 807 811 815 819
802 799 795 791 787 782 775 768 764 761 755 749 742 737 730 722 714 708 702 698 698 694 699 704 703 704 715 723 733 741 749 756 761 767 773 782 788 793 798 802 807 811 815
800 797 794 790 786 782 777 770 765 761 755 749 744 740 735 728 722 716 711 707 702 700 698 697 702 699 708 714 725 735 743 750 756 761 767 774 781 785 791 797 802 806 810
794 793 792 789 786 782 778 772 767 764 758 751 745 741 737 731 724 716 712 709 704 696 696 688 696 694 702 704 718 729 736 743 749 755 761 767 774 779 784 790 796 801 805
794 791 791 789 786 783 779 775 769 764 761 754 748 743 736 731 725 718 713 707 701 697 698 686 697 691 697 703 706 722 729 735 740 747 754 761 768 773 778 783 789 793 797
793 791 790 789 787 784 781 778 772 766 760 758 752 746 741 736 730 721 712 709 702 702 694 689 694 693 692 698 705 714 722 730 735 741 748 755 761 767 772 778 783 788 791
791 790 788 788 787 785 782 779 775 769 762 756 754 749 745 739 733 726 720 715 711 709 705 693 695 696 699 694 702 709 717 724 729 733 739 745 751 758 765 771 776 780 784
787 787 787 786 786 784 782 779 776 772 767 763 756 751 747 742 737 731 725 722 718 711 704 701 700 703 704 699 700 706 712 719 724 728 733 737 743 748 756 761 767 773 776
785 785 785 785 784 784 782 779 777 774 770 766 765 761 756 751 745 740 734 730 725 720 714 709 712 714 709 708 703 705 710 715 720 724 728 732 737 741 748 753 759 764 769
782 783 784 784 783 782 782 780 778 776 774 770 766 763 759 756 751 747 742 737 733 729 723 723 722 721 719 708 706 705 710 712 716 718 722 725 731 736 739 745 750 755 761
780 781 782 782 782 781 781 780 779 777 775 773 769 765 763 760 757 752 748 743 739 735 732 730 727 723 718 717 712 711 716 708 716 718 721 720 725 728 732 737 742 748 754
778 779 779 780 780 780 779 779 779 778 776 773 771 769 764 762 760 756 753 749 743 741 738 735 732 729 727 720 719 722 715 711 714 714 718 719 721 725 724 728 734 741 744
775 776 777 777 777 777 777 778 778 777 776 774 772 770 768 765 762 760 759 754 751 747 744 741 737 735 731 730 725 726 715 710 711 716 717 715 717 720 721 726 727 732 735
772 773 774 775 775 776 775 776 776 776 775 773 773 771 769 767 766 765 765 761 758 753 748 746 745 740 737 735 729 726 723 718 714 714 714 714 714 718 723 726 722 727 728
768 769 771 772 773 774 773 773 774 774 774 773 772 771 770 768 767 765 763 761 758 757 755 754 750 748 747 741 735 732 728 723 715 712 720 721 723 724 723 725 725 725 727